SAA75 FYWH-FAOR

Flight info

Callsign SAA75
Flight time 0h 48m
Altitude 39000
Route EGMAS1B EGMAS UP301 TETUS UN181 PEDIL UQ19 AVAGO AVAGO1C
Aircraft A320/M-SDE3FGHIRWY/LB1

Departure

Time 2026-04-17 08:17
Airport Hosea Kutako International Airport (FYWH)

Arrival

Time 2026-04-17 09:05
Airport O.R. Tambo International Airport (FAOR)
Time Latitude Longitude Altitude Speed Heading
2026-04-17 07:56 -22.48558 17.46335 5569 ft 0 kts 296°
2026-04-17 08:11 -22.48556 17.46332 5569 ft 3 kts 296°
2026-04-17 08:11 -22.48532 17.46288 5570 ft 11 kts 315°
2026-04-17 08:11 -22.48469 17.46316 5569 ft 13 kts 62°
2026-04-17 08:12 -22.48426 17.46413 5567 ft 15 kts 64°
2026-04-17 08:12 -22.48377 17.46519 5567 ft 17 kts 65°
2026-04-17 08:12 -22.48320 17.46645 5565 ft 20 kts 64°
2026-04-17 08:12 -22.48257 17.46781 5563 ft 21 kts 63°
2026-04-17 08:13 -22.48190 17.46928 5562 ft 23 kts 63°
2026-04-17 08:13 -22.48119 17.47084 5563 ft 23 kts 63°
2026-04-17 08:13 -22.48046 17.47242 5562 ft 24 kts 64°
2026-04-17 08:14 -22.47888 17.47588 5553 ft 23 kts 63°
2026-04-17 08:14 -22.47811 17.47756 5548 ft 26 kts 64°
2026-04-17 08:14 -22.47761 17.47866 5544 ft 13 kts 63°
2026-04-17 08:14 -22.47711 17.47917 5541 ft 0 kts 13°
2026-04-17 08:15 -22.47706 17.47919 5540 ft 3 kts 10°
2026-04-17 08:15 -22.47674 17.47908 5540 ft 6 kts 333°
2026-04-17 08:15 -22.47644 17.47887 5542 ft 5 kts 308°
2026-04-17 08:16 -22.47643 17.47854 5544 ft 5 kts 252°
2026-04-17 08:16 -22.47684 17.47765 5546 ft 37 kts 244°
2026-04-17 08:16 -22.47902 17.47284 5560 ft 103 kts 244°
2026-04-17 08:16 -22.48307 17.46400 5564 ft 155 kts 243°
2026-04-17 08:17 -22.48650 17.45648 5587 ft 182 kts 244°
2026-04-17 08:17 -22.49269 17.44366 6041 ft 192 kts 246°
2026-04-17 08:17 -22.50022 17.42661 6973 ft 192 kts 250°
2026-04-17 08:17 -22.50412 17.41751 7172 ft 204 kts 248°
2026-04-17 08:18 -22.51069 17.40297 7374 ft 227 kts 248°
2026-04-17 08:18 -22.52032 17.38223 8160 ft 236 kts 248°
2026-04-17 08:18 -22.52775 17.36634 8960 ft 238 kts 248°
2026-04-17 08:18 -22.53283 17.35549 9473 ft 240 kts 248°
2026-04-17 08:19 -22.54300 17.34114 10211 ft 255 kts 220°
2026-04-17 08:19 -22.56027 17.33425 10647 ft 284 kts 186°
2026-04-17 08:19 -22.58003 17.33898 11163 ft 303 kts 151°
2026-04-17 08:19 -22.59641 17.35360 11816 ft 308 kts 129°
2026-04-17 08:20 -22.60789 17.37322 12504 ft 311 kts 116°
2026-04-17 08:20 -22.61814 17.39391 13205 ft 314 kts 117°
2026-04-17 08:20 -22.62855 17.41498 13839 ft 321 kts 117°
2026-04-17 08:20 -22.63917 17.43656 14384 ft 327 kts 117°
2026-04-17 08:21 -22.64999 17.45856 14891 ft 335 kts 117°
2026-04-17 08:21 -22.66109 17.48108 15375 ft 344 kts 117°
2026-04-17 08:21 -22.67249 17.50424 15845 ft 352 kts 118°
2026-04-17 08:21 -22.68595 17.53159 16395 ft 360 kts 118°
2026-04-17 08:22 -22.70999 17.58053 17227 ft 379 kts 118°
2026-04-17 08:22 -22.73553 17.63274 17930 ft 399 kts 118°
2026-04-17 08:22 -22.76178 17.68653 18981 ft 406 kts 118°
2026-04-17 08:22 -22.78843 17.74101 20003 ft 413 kts 119°
2026-04-17 08:23 -22.81559 17.79649 21076 ft 420 kts 119°
2026-04-17 08:23 -22.84319 17.85317 22098 ft 428 kts 119°
2026-04-17 08:23 -22.87119 17.91070 23108 ft 436 kts 120°
2026-04-17 08:23 -22.89971 17.96925 24008 ft 443 kts 120°
2026-04-17 08:24 -22.92834 18.02814 24795 ft 450 kts 120°
2026-04-17 08:24 -22.95778 18.08870 25574 ft 458 kts 120°
2026-04-17 08:24 -22.98769 18.15042 26351 ft 465 kts 119°
2026-04-17 08:24 -23.00973 18.21706 27089 ft 475 kts 107°
2026-04-17 08:25 -23.02838 18.28628 27798 ft 481 kts 108°
2026-04-17 08:25 -23.04764 18.35640 28509 ft 488 kts 108°
2026-04-17 08:25 -23.06720 18.42759 29209 ft 495 kts 108°
2026-04-17 08:25 -23.08683 18.49993 29923 ft 501 kts 108°
2026-04-17 08:26 -23.10658 18.57307 30504 ft 508 kts 108°
2026-04-17 08:26 -23.12652 18.64713 31053 ft 514 kts 108°
2026-04-17 08:26 -23.14670 18.72198 31714 ft 517 kts 107°
2026-04-17 08:26 -23.16699 18.79730 32465 ft 519 kts 107°
2026-04-17 08:27 -23.18729 18.87270 33204 ft 521 kts 107°
2026-04-17 08:27 -23.20765 18.94846 33950 ft 524 kts 107°
2026-04-17 08:27 -23.22800 19.02474 34620 ft 524 kts 106°
2026-04-17 08:27 -23.24826 19.10073 35325 ft 523 kts 106°
2026-04-17 08:28 -23.26856 19.17681 35985 ft 522 kts 106°
2026-04-17 08:28 -23.28838 19.25145 36619 ft 521 kts 105°
2026-04-17 08:28 -23.30848 19.32708 37224 ft 520 kts 105°
2026-04-17 08:28 -23.32850 19.40285 37833 ft 519 kts 105°
2026-04-17 08:29 -23.34832 19.47831 38398 ft 519 kts 105°
2026-04-17 08:29 -23.36824 19.55361 38862 ft 518 kts 105°
2026-04-17 08:29 -23.38817 19.62947 38945 ft 521 kts 105°
2026-04-17 08:30 -23.42793 19.78110 38947 ft 521 kts 104°
2026-04-17 08:30 -23.46765 19.93296 38946 ft 522 kts 104°
2026-04-17 08:31 -23.51563 20.08126 38938 ft 523 kts 112°
2026-04-17 08:31 -23.57113 20.22767 38953 ft 523 kts 112°
2026-04-17 08:32 -23.62623 20.37479 38961 ft 524 kts 112°
2026-04-17 08:32 -23.68144 20.52176 38966 ft 524 kts 111°
2026-04-17 08:33 -23.73659 20.66914 38964 ft 524 kts 111°
2026-04-17 08:33 -23.79165 20.81696 38971 ft 524 kts 111°
2026-04-17 08:34 -23.84642 20.96458 38967 ft 525 kts 111°
2026-04-17 08:34 -23.90076 21.11175 38966 ft 525 kts 111°
2026-04-17 08:35 -23.95548 21.25990 38968 ft 525 kts 111°
2026-04-17 08:35 -24.00997 21.40837 38968 ft 526 kts 111°
2026-04-17 08:36 -24.06422 21.55679 38972 ft 526 kts 111°
2026-04-17 08:36 -24.11875 21.70549 38971 ft 526 kts 111°
2026-04-17 08:37 -24.17590 21.85289 38973 ft 526 kts 112°
2026-04-17 08:37 -24.23253 22.00089 38980 ft 526 kts 112°
2026-04-17 08:38 -24.28884 22.14885 38973 ft 526 kts 111°
2026-04-17 08:38 -24.34511 22.29699 38975 ft 527 kts 111°
2026-04-17 08:39 -24.40133 22.44552 38974 ft 527 kts 111°
2026-04-17 08:39 -24.45722 22.59404 38982 ft 527 kts 111°
2026-04-17 08:40 -24.51316 22.74282 38981 ft 527 kts 111°
2026-04-17 08:40 -24.56859 22.89162 38978 ft 527 kts 111°
2026-04-17 08:41 -24.62396 23.04082 38979 ft 527 kts 111°
2026-04-17 08:41 -24.67906 23.19007 38973 ft 527 kts 111°
2026-04-17 08:42 -24.73436 23.33978 38977 ft 528 kts 111°
2026-04-17 08:42 -24.78942 23.48984 38978 ft 528 kts 111°
2026-04-17 08:43 -24.84381 23.63902 38986 ft 528 kts 110°
2026-04-17 08:43 -24.89646 23.78995 38984 ft 528 kts 109°
2026-04-17 08:44 -24.94913 23.94123 38984 ft 529 kts 110°
2026-04-17 08:44 -25.00197 24.09238 38983 ft 529 kts 110°
2026-04-17 08:45 -25.05449 24.24415 38990 ft 529 kts 110°
2026-04-17 08:45 -25.10694 24.39589 38993 ft 530 kts 110°
2026-04-17 08:46 -25.15920 24.54810 38999 ft 530 kts 110°
2026-04-17 08:46 -25.21150 24.70039 39007 ft 530 kts 110°
2026-04-17 08:47 -25.26345 24.85266 39014 ft 530 kts 110°
2026-04-17 08:47 -25.31538 25.00529 39022 ft 530 kts 110°
2026-04-17 08:48 -25.36711 25.15785 39065 ft 530 kts 110°
2026-04-17 08:48 -25.41807 25.31090 39078 ft 530 kts 109°
2026-04-17 08:49 -25.45576 25.42522 39083 ft 530 kts 109°
2026-04-17 08:49 -25.48116 25.50196 39096 ft 530 kts 109°
2026-04-17 08:50 -25.50646 25.57870 39108 ft 530 kts 109°
2026-04-17 08:50 -25.52824 25.65675 38731 ft 533 kts 97°
2026-04-17 08:50 -25.53312 25.69712 38323 ft 527 kts 94°
2026-04-17 08:51 -25.53744 25.73731 37953 ft 526 kts 94°
2026-04-17 08:51 -25.54440 25.77720 37580 ft 528 kts 108°
2026-04-17 08:51 -25.55764 25.81656 37173 ft 526 kts 111°
2026-04-17 08:51 -25.61083 25.96307 35730 ft 513 kts 111°
2026-04-17 08:52 -25.66327 26.10788 34323 ft 499 kts 111°
2026-04-17 08:52 -25.71449 26.25012 32846 ft 491 kts 111°
2026-04-17 08:52 -25.76437 26.38835 31389 ft 476 kts 111°
2026-04-17 08:52 -25.81319 26.52320 29922 ft 464 kts 111°
2026-04-17 08:53 -25.86070 26.65456 28275 ft 454 kts 111°
2026-04-17 08:53 -25.90722 26.78368 26685 ft 447 kts 111°
2026-04-17 08:53 -25.95277 26.91062 25183 ft 438 kts 111°
2026-04-17 08:53 -25.99705 27.03441 23822 ft 424 kts 110°
2026-04-17 08:54 -26.03966 27.15402 22356 ft 405 kts 110°
2026-04-17 08:54 -26.07986 27.26790 21039 ft 387 kts 110°
2026-04-17 08:54 -26.11796 27.37689 19782 ft 370 kts 110°
2026-04-17 08:54 -26.15421 27.48160 18599 ft 356 kts 110°
2026-04-17 08:55 -26.17314 27.53672 17899 ft 350 kts 110°
2026-04-17 08:55 -26.18177 27.56189 17584 ft 346 kts 110°
2026-04-17 08:55 -26.19529 27.59237 17224 ft 341 kts 119°
2026-04-17 08:55 -26.21889 27.63780 16609 ft 333 kts 120°
2026-04-17 08:56 -26.24167 27.68126 16030 ft 318 kts 120°
2026-04-17 08:56 -26.26344 27.72271 15505 ft 302 kts 120°
2026-04-17 08:56 -26.28408 27.76205 15045 ft 287 kts 120°
2026-04-17 08:56 -26.30385 27.79977 14544 ft 281 kts 120°
2026-04-17 08:57 -26.32373 27.83765 13957 ft 284 kts 119°
2026-04-17 08:57 -26.33151 27.87957 13276 ft 279 kts 88°
2026-04-17 08:57 -26.33208 27.92230 12561 ft 271 kts 88°
2026-04-17 08:57 -26.33278 27.96365 11887 ft 262 kts 88°
2026-04-17 08:58 -26.33343 28.00063 11286 ft 255 kts 88°
2026-04-17 08:58 -26.33377 28.02022 10974 ft 251 kts 88°
2026-04-17 08:58 -26.33410 28.03952 10667 ft 246 kts 87°
2026-04-17 08:58 -26.33442 28.05841 10379 ft 240 kts 87°
2026-04-17 08:59 -26.33473 28.07666 10071 ft 231 kts 87°
2026-04-17 08:59 -26.33503 28.09428 9732 ft 224 kts 87°
2026-04-17 08:59 -26.33531 28.11132 9439 ft 216 kts 87°
2026-04-17 08:59 -26.33556 28.12777 9184 ft 209 kts 86°
2026-04-17 09:00 -26.33579 28.14377 8956 ft 205 kts 86°
2026-04-17 09:00 -26.33600 28.15964 8733 ft 202 kts 86°
2026-04-17 09:00 -26.33433 28.17482 8527 ft 194 kts 68°
2026-04-17 09:00 -26.32849 28.18781 8377 ft 188 kts 49°
2026-04-17 09:01 -26.31925 28.19777 8263 ft 182 kts 30°
2026-04-17 09:01 -26.30795 28.20372 8139 ft 179 kts 12°
2026-04-17 09:01 -26.29581 28.20747 8070 ft 177 kts 12°
2026-04-17 09:01 -26.28446 28.21101 7917 ft 166 kts 11°
2026-04-17 09:02 -26.27366 28.21437 7731 ft 156 kts 11°
2026-04-17 09:02 -26.26350 28.21752 7571 ft 146 kts 11°
2026-04-17 09:02 -26.25372 28.22055 7379 ft 145 kts 10°
2026-04-17 09:02 -26.24404 28.22355 7178 ft 145 kts 11°
2026-04-17 09:03 -26.23429 28.22657 6991 ft 145 kts 11°
2026-04-17 09:03 -26.22471 28.22953 6810 ft 142 kts 11°
2026-04-17 09:03 -26.21517 28.23249 6628 ft 143 kts 11°
2026-04-17 09:03 -26.20549 28.23549 6430 ft 144 kts 10°
2026-04-17 09:04 -26.19595 28.23845 6226 ft 142 kts 12°
2026-04-17 09:04 -26.18643 28.24140 6024 ft 142 kts 13°
2026-04-17 09:04 -26.18000 28.24336 5896 ft 145 kts 12°
2026-04-17 09:04 -26.16719 28.24742 5611 ft 142 kts 11°
2026-04-17 09:05 -26.15791 28.25018 5526 ft 129 kts 12°
2026-04-17 09:05 -26.15123 28.25228 5524 ft 69 kts 15°
2026-04-17 09:05 -26.14899 28.25298 5524 ft 32 kts 15°
2026-04-17 09:05 -26.14745 28.25322 5522 ft 20 kts
2026-04-17 09:06 -26.14625 28.25307 5523 ft 12 kts 347°
2026-04-17 09:06 -26.14554 28.25287 5524 ft 10 kts 342°
2026-04-17 09:06 -26.14498 28.25237 5527 ft 11 kts 316°
2026-04-17 09:06 -26.14439 28.25174 5525 ft 13 kts 315°
2026-04-17 09:07 -26.14373 28.25102 5525 ft 14 kts 315°
2026-04-17 09:07 -26.14299 28.25023 5526 ft 15 kts 316°
2026-04-17 09:07 -26.14220 28.24936 5526 ft 17 kts 315°
2026-04-17 09:07 -26.14175 28.24887 5526 ft 0 kts 316°
2026-04-17 09:08 -26.12915 28.23488 5532 ft 0 kts 186°